Weather in Sedona

United States     34°52′10″N   111°45′36″W
temp.,
°C
wind,
m/s
gust,
m/s
humid.,
%
clouds,
%
prec.,
mm/h
press.,
hPa
HPBL,
m
16 may, sun
sun1600:00+15se22210 0.0 100913
03:00+12se22240 0.0 100911
06:00+9ese22280 0.0 101111
09:00+16sw23190 0.0 1013649
12:00+22ssw79170 0.0 10102156
15:00+24ssw1012140 0.0 10083015
18:00+22ssw610203 0.0 10072984
21:00+15sw47220 0.0 1008104
17 may, mon
mon1700:00+11e223280 0.0 101016
03:00+10ene224149 0.0 101014
06:00+8e1155100 0.2 101214
09:00+14ssw23355 0.0 1012519
12:00+19wsw34264 0.0 10112241
15:00+24wsw561572 0.0 10073506
18:00+23wnw5619100 0.0 10063148
21:00+16n223492 0.1 100918
18 may, tue
tue1800:00+13e22525 0.3 101112
03:00+11ene225199 0.0 101112
06:00+11ene225086 0.0 101111
09:00+17sw223471 0.0 1011463
12:00+22wsw232716 0.0 10091645
15:00+27wsw6719100 0.0 10053611
18:00+25s552445 0.0 10052161
21:00+19se443417 0.0 100634
19 may, wed
wed1900:00+15ese22432 0.0 100911
03:00+14ese11475 0.0 100911
06:00+13e22500 0.0 101011
09:00+19sw23350 0.0 1011498
12:00+25sw47261 0.0 10081990
15:00+28ssw1210185 0.0 10063280
18:00+27ssw810183 0.0 10053113
21:00+20ssw47290 0.0 1006107
20 may, thu
thu2000:00+16ese33390 0.0 100813
03:00+14se22430 0.0 100913
06:00+12ese11530 0.0 100913
09:00+19ssw36340 0.0 1009770
12:00+25s1113190 0.0 10072377
15:00+27ssw1114160 0.0 10053008
18:00+25ssw1013174 0.0 10033106
21:00+18s46262 0.0 1005102